When you browse on this site, cookies collect data to enhance your experience and personalize the content and advertising you see.
Visit our Privacy Policy to learn more. By continuing to use the site, you agree to this use of cookies and data.
  • Em Portugal
  • Lista de países
  • Para 7 dias
  • Temperatura da água
  • Mapas de satélite
  • Mapa do tempo
  • Widgets de tempo
  • user-avatar
    Iniciar Sessão

    Previsão horária em Mozir

    Hoje, 20 Maio, Segunda-feira

    Tempo Temperatura Precipitação Vento Pressão Humidade
    00:00 +17°C° 0 mm 4 m/s 746 mmHg 81%
    01:00 +17°C° 0 mm 4 m/s 746 mmHg 82%
    02:00 +16°C° 0 mm 3 m/s 746 mmHg 85%
    03:00 +16°C° 0 mm 3 m/s 746 mmHg 85%
    04:00 +15°C° 0 mm 4 m/s 746 mmHg 85%
    05:00 +15°C° 0 mm 4 m/s 746 mmHg 85%
    06:00 +16°C° 0 mm 5 m/s 746 mmHg 80%
    07:00 +19°C° 0 mm 5 m/s 747 mmHg 74%
    08:00 +21°C° 0 mm 5 m/s 747 mmHg 69%
    09:00 +22°C° 0 mm 6 m/s 747 mmHg 63%
    10:00 +23°C° 0 mm 6 m/s 747 mmHg 58%
    11:00 +26°C° 0 mm 7 m/s 747 mmHg 52%
    12:00 +26°C° 0 mm 7 m/s 747 mmHg 51%
    13:00 +26°C° 0 mm 7 m/s 747 mmHg 49%
    14:00 +27°C° 0 mm 7 m/s 746 mmHg 48%
    15:00 +26°C° 0 mm 6 m/s 746 mmHg 51%
    16:00 +26°C° 0 mm 6 m/s 746 mmHg 53%
    17:00 +24°C° 0 mm 6 m/s 746 mmHg 56%
    18:00 +23°C° 0 mm 5 m/s 746 mmHg 61%
    19:00 +21°C° 0 mm 5 m/s 746 mmHg 65%
    20:00 +20°C° 0 mm 5 m/s 746 mmHg 70%
    21:00 +19°C° 0 mm 5 m/s 746 mmHg 70%
    22:00 +19°C° 0 mm 6 m/s 745 mmHg 70%
    23:00 +19°C° 0 mm 6 m/s 745 mmHg 70%

    Amanhã, 21 Maio, Terça-feira

    Tempo Temperatura Precipitação Vento Pressão Humidade
    00:00 +17°C° 0.3 mm 6 m/s 745 mmHg 73%
    01:00 +16°C° 0.3 mm 5 m/s 745 mmHg 76%
    02:00 +16°C° 0.3 mm 5 m/s 745 mmHg 78%
    03:00 +15°C° 1.2 mm 5 m/s 745 mmHg 82%
    04:00 +15°C° 1.2 mm 5 m/s 745 mmHg 85%
    05:00 +15°C° 1.2 mm 6 m/s 745 mmHg 88%
    06:00 +16°C° 1.1 mm 6 m/s 745 mmHg 86%
    07:00 +16°C° 1.1 mm 6 m/s 745 mmHg 84%
    08:00 +17°C° 1.1 mm 7 m/s 745 mmHg 82%
    09:00 +20°C° 0.4 mm 7 m/s 745 mmHg 77%
    10:00 +21°C° 0.4 mm 7 m/s 745 mmHg 73%
    11:00 +22°C° 0.4 mm 8 m/s 745 mmHg 68%
    12:00 +22°C° 0.7 mm 8 m/s 744 mmHg 70%
    13:00 +22°C° 0.7 mm 8 m/s 744 mmHg 72%
    14:00 +22°C° 0.7 mm 8 m/s 744 mmHg 75%
    15:00 +22°C° 0.3 mm 8 m/s 743 mmHg 74%
    16:00 +22°C° 0.3 mm 7 m/s 743 mmHg 73%
    17:00 +21°C° 0.3 mm 7 m/s 743 mmHg 72%
    18:00 +20°C° 0.4 mm 6 m/s 743 mmHg 77%
    19:00 +19°C° 0.4 mm 5 m/s 743 mmHg 82%
    20:00 +18°C° 0.4 mm 4 m/s 743 mmHg 87%
    21:00 +17°C° 0 mm 3 m/s 743 mmHg 88%
    22:00 +17°C° 0 mm 3 m/s 743 mmHg 90%
    23:00 +17°C° 0 mm 3 m/s 743 mmHg 92%

    Depois de amanhã, 22 Maio, Quarta-feira

    Tempo Temperatura Precipitação Vento Pressão Humidade
    00:00 +16°C° 0 mm 3 m/s 743 mmHg 93%
    01:00 +15°C° 0 mm 2 m/s 743 mmHg 95%
    02:00 +15°C° 0 mm 2 m/s 743 mmHg 96%
    03:00 +15°C° 0 mm 2 m/s 743 mmHg 97%
    04:00 +14°C° 0 mm 1 m/s 743 mmHg 97%
    05:00 +14°C° 0 mm 1 m/s 743 mmHg 97%
    06:00 +16°C° 0 mm 1 m/s 743 mmHg 92%
    07:00 +19°C° 0 mm 1 m/s 743 mmHg 87%
    08:00 +20°C° 0 mm 1 m/s 743 mmHg 81%
    09:00 +21°C° 0.6 mm 1 m/s 743 mmHg 74%
    10:00 +21°C° 0.6 mm 2 m/s 743 mmHg 67%
    11:00 +24°C° 0.6 mm 2 m/s 743 mmHg 60%
    12:00 +24°C° 0 mm 2 m/s 743 mmHg 56%
    13:00 +25°C° 0 mm 2 m/s 743 mmHg 52%
    14:00 +26°C° 0 mm 2 m/s 743 mmHg 47%
    15:00 +26°C° 0 mm 2 m/s 743 mmHg 49%
    16:00 +25°C° 0 mm 2 m/s 742 mmHg 51%
    17:00 +25°C° 0 mm 2 m/s 742 mmHg 53%
    18:00 +23°C° 0 mm 2 m/s 742 mmHg 59%
    19:00 +21°C° 0 mm 1 m/s 742 mmHg 65%
    20:00 +20°C° 0 mm 1 m/s 742 mmHg 71%
    21:00 +19°C° 0 mm 1 m/s 742 mmHg 74%
    22:00 +18°C° 0 mm 1 m/s 743 mmHg 76%
    23:00 +16°C° 0 mm 2 m/s 743 mmHg 79%

    23 Maio, Quinta-feira

    Tempo Temperatura Precipitação Vento Pressão Humidade
    00:00 +16°C° 0 mm 1 m/s 743 mmHg 81%
    01:00 +15°C° 0 mm 1 m/s 743 mmHg 83%
    02:00 +15°C° 0 mm 1 m/s 742 mmHg 85%
    03:00 +15°C° 0 mm 1 m/s 742 mmHg 85%
    04:00 +15°C° 0 mm 1 m/s 742 mmHg 86%
    05:00 +14°C° 0 mm 1 m/s 742 mmHg 87%
    06:00 +16°C° 0 mm 1 m/s 743 mmHg 82%
    07:00 +19°C° 0 mm 1 m/s 743 mmHg 77%
    08:00 +20°C° 0 mm 1 m/s 743 mmHg 71%
    09:00 +22°C° 0 mm 1 m/s 743 mmHg 66%
    10:00 +23°C° 0 mm 1 m/s 743 mmHg 60%
    11:00 +24°C° 0 mm 2 m/s 743 mmHg 55%
    12:00 +25°C° 0 mm 1 m/s 743 mmHg 52%
    13:00 +25°C° 0 mm 1 m/s 742 mmHg 50%
    14:00 +26°C° 0 mm 1 m/s 742 mmHg 47%
    15:00 +26°C° 0 mm 1 m/s 742 mmHg 49%
    16:00 +25°C° 0 mm 1 m/s 742 mmHg 50%
    17:00 +23°C° 0 mm 0 m/s 742 mmHg 52%
    18:00 +23°C° 0.5 mm 1 m/s 742 mmHg 61%
    19:00 +21°C° 0.5 mm 1 m/s 742 mmHg 71%
    20:00 +19°C° 0.5 mm 1 m/s 742 mmHg 80%
    21:00 +19°C° 0.1 mm 1 m/s 742 mmHg 83%
    22:00 +18°C° 0.1 mm 1 m/s 742 mmHg 85%
    23:00 +17°C° 0.1 mm 2 m/s 742 mmHg 88%

    24 Maio, Sexta-feira

    Tempo Temperatura Precipitação Vento Pressão Humidade
    00:00 +16°C° 0.8 mm 1 m/s 742 mmHg 90%
    01:00 +16°C° 0.8 mm 1 m/s 742 mmHg 92%
    02:00 +15°C° 0.8 mm 1 m/s 741 mmHg 94%
    03:00 +15°C° 0.3 mm 1 m/s 741 mmHg 95%
    04:00 +15°C° 0.3 mm 1 m/s 741 mmHg 95%
    05:00 +15°C° 0.3 mm 1 m/s 741 mmHg 96%
    06:00 +16°C° 0.3 mm 2 m/s 741 mmHg 93%
    07:00 +17°C° 0.3 mm 2 m/s 741 mmHg 89%
    08:00 +18°C° 0.3 mm 2 m/s 741 mmHg 86%
    09:00 +19°C° 0.2 mm 2 m/s 741 mmHg 80%
    10:00 +20°C° 0.2 mm 2 m/s 741 mmHg 74%
    11:00 +21°C° 0.2 mm 2 m/s 740 mmHg 68%
    12:00 +23°C° 0.1 mm 1 m/s 740 mmHg 64%
    13:00 +24°C° 0.1 mm 1 m/s 740 mmHg 59%
    14:00 +25°C° 0.1 mm 1 m/s 739 mmHg 54%
    15:00 +24°C° 0.4 mm 1 m/s 739 mmHg 58%
    16:00 +24°C° 0.4 mm 1 m/s 739 mmHg 61%
    17:00 +24°C° 0.4 mm 1 m/s 739 mmHg 65%
    18:00 +22°C° 0.9 mm 1 m/s 739 mmHg 72%
    19:00 +20°C° 0.9 mm 1 m/s 738 mmHg 78%
    20:00 +19°C° 0.9 mm 1 m/s 738 mmHg 85%
    21:00 +18°C° 0.2 mm 1 m/s 738 mmHg 87%
    22:00 +18°C° 0.2 mm 1 m/s 738 mmHg 88%
    23:00 +16°C° 0.2 mm 1 m/s 738 mmHg 89%

    25 Maio, Sábado

    Tempo Temperatura Precipitação Vento Pressão Humidade
    00:00 +16°C° 0 mm 1 m/s 738 mmHg 90%
    01:00 +15°C° 0 mm 1 m/s 738 mmHg 91%
    02:00 +14°C° 0 mm 0 m/s 738 mmHg 92%
    03:00 +14°C° 0 mm 1 m/s 738 mmHg 93%
    04:00 +14°C° 0 mm 1 m/s 738 mmHg 94%
    05:00 +14°C° 0 mm 1 m/s 738 mmHg 94%
    06:00 +16°C° 0 mm 1 m/s 738 mmHg 89%
    07:00 +19°C° 0 mm 1 m/s 738 mmHg 84%
    08:00 +20°C° 0 mm 1 m/s 738 mmHg 78%
    09:00 +20°C° 0.5 mm 2 m/s 738 mmHg 74%
    10:00 +21°C° 0.5 mm 2 m/s 738 mmHg 70%
    11:00 +23°C° 0.5 mm 2 m/s 738 mmHg 66%
    12:00 +23°C° 1.1 mm 2 m/s 737 mmHg 67%
    13:00 +23°C° 1.1 mm 2 m/s 737 mmHg 69%
    14:00 +23°C° 1.1 mm 2 m/s 737 mmHg 70%
    15:00 +22°C° 0.4 mm 3 m/s 737 mmHg 72%
    16:00 +22°C° 0.4 mm 3 m/s 737 mmHg 73%
    17:00 +21°C° 0.4 mm 3 m/s 737 mmHg 75%
    18:00 +20°C° 0.1 mm 3 m/s 737 mmHg 79%
    19:00 +19°C° 0.1 mm 3 m/s 737 mmHg 83%
    20:00 +18°C° 0.1 mm 3 m/s 737 mmHg 87%
    21:00 +17°C° 0 mm 3 m/s 737 mmHg 90%
    22:00 +16°C° 0 mm 2 m/s 737 mmHg 92%
    23:00 +15°C° 0 mm 2 m/s 737 mmHg 95%
    Mostrar mais